Waarnemingen

Advertentie
Mijn weer
Florennes, België (6456): temperatuur & dauwpunt: 18.01.2021 15:00:00 - 24.01.2021 15:00:00 (CET)Florennes, België (6456): windsnelheid & windstoten: 18.01.2021 15:00:00 - 24.01.2021 15:00:00 (CET)Florennes, België (6456): windrichting: 18.01.2021 15:00:00 - 24.01.2021 15:00:00 (CET)Florennes, België (6456): luchtdruk: 18.01.2021 15:00:00 - 24.01.2021 15:00:00 (CET)Florennes, België (6456): zicht: 18.01.2021 15:00:00 - 24.01.2021 15:00:00 (CET)
Datum & Tijd tt [°C] td [°C] ff [km/u] ff [kn] fx [km/u] fx [kn] dd ppp [hPa] vv [km]
24.01.2021 15:00:00 0,0 -1,0 11 6 18 10 ZZO 1000,6 20
24.01.2021 14:00:00 -0,1 -1,1 7 4 22 12 Z 1001,3 12
24.01.2021 13:00:00 -0,4 -1,3 14 8 - - Z 1002,2 11
24.01.2021 12:00:00 -0,9 -1,5 18 10 25 14 ZZW 1002,7 9
24.01.2021 11:00:00 -1,3 -1,6 11 6 14 8 ZW 1002,7 6
24.01.2021 10:00:00 -1,7 -2,3 7 4 - - WZW 1002,5 11
24.01.2021 09:00:00 -2,3 -2,6 11 6 18 10 W 1001,8 7
24.01.2021 08:00:00 -1,8 -2,1 14 8 25 14 WZW 1001,2 7
24.01.2021 07:00:00 -1,7 -1,9 18 10 - - W 1000,3 8
24.01.2021 06:00:00 -1,0 -1,1 22 12 36 19 W 999,9 7
24.01.2021 05:00:00 -0,8 -0,9 25 14 40 21 W 999,1 6
24.01.2021 04:00:00 -0,8 -0,8 29 16 - - W 998,4 7
24.01.2021 03:00:00 -0,7 -0,7 25 14 36 19 W 997,7 7
24.01.2021 02:00:00 -0,6 -0,6 25 14 43 23 W 997,0 7
24.01.2021 01:00:00 -0,2 -0,2 22 12 - - WNW 996,2 5
24.01.2021 00:00:00 -0,2 -0,2 22 12 29 16 WNW 995,6 0,7
23.01.2021 23:00:00 -0,3 -0,3 18 10 29 16 WNW 995,0 2,3
23.01.2021 22:00:00 -0,1 -0,1 18 10 - - NW 994,1 1,8
23.01.2021 21:00:00 -0,3 -0,3 18 10 29 16 NW 993,6 0,9
23.01.2021 20:00:00 -0,2 -0,2 7 4 11 6 WNW 993,1 1,6
23.01.2021 19:00:00 0,0 0,0 4 2 - - N 992,7 0,7
23.01.2021 18:00:00 0,3 0,0 11 6 14 8 O 992,8 1,0
23.01.2021 17:00:00 1,4 0,6 7 4 18 10 O 992,6 5
23.01.2021 16:00:00 3,0 1,3 11 6 - - O 992,4 8
23.01.2021 15:00:00 3,9 1,2 7 4 14 8 OZO 992,6 20
23.01.2021 14:00:00 3,9 1,1 11 6 22 12 ZZO 993,4 20
23.01.2021 13:00:00 3,4 1,2 11 6 - - ZZO 994,6 19
23.01.2021 12:00:00 2,6 1,0 11 6 25 14 Z 995,4 20
23.01.2021 11:00:00 2,2 0,9 18 10 29 16 Z 995,9 20
23.01.2021 10:00:00 2,4 0,9 14 8 - - Z 996,6 20
23.01.2021 09:00:00 2,5 1,2 14 8 22 12 ZZW 997,0 17
23.01.2021 08:00:00 2,5 1,4 11 6 25 14 ZZW 997,2 17
23.01.2021 07:00:00 2,7 1,3 18 10 - - ZZW 996,9 18
23.01.2021 06:00:00 2,7 1,5 18 10 25 14 ZZW 997,2 15
23.01.2021 05:00:00 2,7 2,0 14 8 29 16 ZZW 997,4 9
23.01.2021 04:00:00 2,7 2,1 18 10 - - ZW 997,7 6
23.01.2021 03:00:00 2,2 1,8 14 8 25 14 ZZW 997,9 5
23.01.2021 02:00:00 1,7 1,5 14 8 25 14 Z 997,9 4,9
23.01.2021 01:00:00 1,2 1,2 11 6 - - Z 998,3 0,9
23.01.2021 00:00:00 1,4 1,4 14 8 22 12 Z 998,6 0,4
22.01.2021 23:00:00 1,0 1,0 18 10 22 12 Z 998,5 0,4
22.01.2021 22:00:00 1,4 0,5 11 6 - - Z 998,4 14
22.01.2021 21:00:00 1,9 0,6 7 4 11 6 ZZW 998,5 19
22.01.2021 20:00:00 1,9 0,1 4 2 7 4 N 997,9 20
22.01.2021 19:00:00 2,4 0,1 4 2 - - N 997,5 20
22.01.2021 18:00:00 2,5 0,2 4 2 11 6 N 996,9 20
22.01.2021 17:00:00 3,9 0,5 7 4 11 6 W 996,4 15
22.01.2021 16:00:00 5,0 1,1 7 4 - - WNW 995,9 15
22.01.2021 15:00:00 5,1 1,5 11 6 25 14 W 995,5 15
22.01.2021 14:00:00 5,6 2,2 14 8 22 12 WZW 995,4 15
22.01.2021 13:00:00 4,0 2,7 11 6 - - ZW 995,5 15
22.01.2021 12:00:00 4,2 2,8 14 8 22 12 ZW 995,2 15
22.01.2021 11:00:00 3,7 3,0 14 8 25 14 ZW 994,7 15
22.01.2021 10:00:00 2,7 2,1 14 8 - - ZW 994,0 10
22.01.2021 09:00:00 2,5 2,0 11 6 22 12 ZW 993,2 10
22.01.2021 08:00:00 2,5 1,9 14 8 18 10 ZW 992,5 10
22.01.2021 07:00:00 2,4 1,8 11 6 - - ZW 991,8 8
22.01.2021 06:00:00 2,5 2,0 7 4 14 8 ZW 991,8 10
22.01.2021 05:00:00 2,5 1,8 11 6 18 10 ZW 991,6 18
22.01.2021 04:00:00 2,5 1,8 11 6 - - WZW 991,1 19
22.01.2021 03:00:00 2,7 1,8 14 8 47 25 W 990,1 20
22.01.2021 02:00:00 4,2 3,3 32 18 58 31 W 988,4 13
22.01.2021 01:00:00 7,6 6,2 40 21 - - ZZW 985,5 7
22.01.2021 00:00:00 7,8 6,4 40 21 65 35 ZZW 985,5 8
21.01.2021 23:00:00 8,1 5,7 32 18 68 37 ZZW 985,8 20
21.01.2021 22:00:00 7,6 6,4 40 21 - - ZZW 986,4 4,6
21.01.2021 21:00:00 8,8 5,9 47 25 79 43 ZZW 986,1 20
21.01.2021 20:00:00 7,5 6,4 25 14 47 25 Z 987,3 4,7
21.01.2021 19:00:00 6,4 5,4 25 14 - - Z 989,0 10
21.01.2021 18:00:00 5,9 4,1 22 12 40 21 Z 991,1 17
21.01.2021 17:00:00 6,4 3,2 18 10 47 25 Z 992,7 20
21.01.2021 16:00:00 6,5 3,1 25 14 - - ZZW 993,9 20
21.01.2021 15:00:00 6,5 2,8 36 19 54 29 ZZW 994,7 20
21.01.2021 14:00:00 6,0 2,5 36 19 54 29 ZZW 995,1 20
21.01.2021 13:00:00 5,5 2,6 32 18 - - ZZW 995,8 20
21.01.2021 12:00:00 5,0 2,7 32 18 50 27 ZZW 996,3 20
21.01.2021 11:00:00 4,9 2,5 29 16 47 25 ZZW 996,0 20
21.01.2021 10:00:00 4,5 2,5 29 16 - - ZW 995,7 20
21.01.2021 09:00:00 3,5 2,3 29 16 40 21 ZW 995,2 20
21.01.2021 08:00:00 3,5 2,6 25 14 40 21 ZZW 994,3 20
21.01.2021 07:00:00 3,6 2,6 25 14 - - ZZW 993,4 20
21.01.2021 06:00:00 3,9 2,5 36 19 76 41 WZW 992,4 7
21.01.2021 05:00:00 9,3 6,2 40 21 68 37 ZZW 988,3 7
21.01.2021 04:00:00 8,6 5,5 36 19 - - Z 988,2 20
21.01.2021 03:00:00 9,3 4,8 43 23 79 43 Z 988,5 12
21.01.2021 02:00:00 10,3 3,2 43 23 76 41 Z 988,6 20
21.01.2021 01:00:00 9,9 3,3 43 23 - - Z 989,7 20
21.01.2021 00:00:00 9,4 3,8 36 19 61 33 Z 991,2 20
20.01.2021 23:00:00 9,3 4,1 32 18 58 31 Z 992,3 20
20.01.2021 22:00:00 9,4 4,1 32 18 - - Z 993,4 20
20.01.2021 21:00:00 9,5 4,5 32 18 54 29 Z 993,9 20
20.01.2021 20:00:00 9,8 3,7 29 16 50 27 Z 994,5 20
20.01.2021 19:00:00 9,1 3,3 25 14 - - Z 995,3 20
20.01.2021 18:00:00 9,1 2,4 29 16 47 25 Z 995,9 20
20.01.2021 17:00:00 8,8 2,1 29 16 47 25 Z 996,5 15
20.01.2021 16:00:00 9,1 1,9 32 18 - - Z 997,0 15
20.01.2021 15:00:00 9,1 1,3 32 18 54 29 Z 997,7 15
20.01.2021 14:00:00 8,6 -0,1 29 16 47 25 Z 998,5 15
20.01.2021 13:00:00 8,3 -0,4 29 16 - - Z 999,9 15
20.01.2021 12:00:00 7,5 -0,7 29 16 43 23 Z 1001,0 15
20.01.2021 11:00:00 6,7 -0,8 29 16 43 23 Z 1001,8 15
20.01.2021 10:00:00 5,9 -1,1 29 16 - - Z 1001,8 15
20.01.2021 09:00:00 4,8 -1,0 25 14 40 21 Z 1002,2 15
20.01.2021 08:00:00 4,6 0,5 29 16 36 19 Z 1003,2 15
20.01.2021 07:00:00 5,1 1,0 22 12 - - Z 1003,6 20
20.01.2021 06:00:00 5,4 0,9 25 14 43 23 ZZW 1003,7 20
20.01.2021 05:00:00 5,1 1,2 29 16 47 25 Z 1004,3 20
20.01.2021 04:00:00 4,4 0,9 22 12 - - Z 1005,2 20
20.01.2021 03:00:00 4,5 0,7 32 18 50 27 ZZW 1006,0 20
20.01.2021 02:00:00 4,5 1,0 32 18 47 25 ZZW 1006,1 20
20.01.2021 01:00:00 4,0 0,6 29 16 - - ZZW 1006,7 20
20.01.2021 00:00:00 3,9 0,8 25 14 40 21 ZZW 1007,7 20
19.01.2021 23:00:00 3,2 1,1 25 14 36 19 Z 1008,3 20
19.01.2021 22:00:00 3,7 2,2 22 12 - - ZZW 1009,1 19
19.01.2021 21:00:00 4,1 2,7 26 14 50 27 ZZW 1009,7 10
19.01.2021 20:00:00 4,1 2,8 29 16 47 25 ZZW 1009,8 20
19.01.2021 19:00:00 4,0 3,1 22 12 - - ZZW 1010,2 15
19.01.2021 18:00:00 3,7 3,6 25 14 40 21 ZZW 1011,2 4,0
19.01.2021 17:00:00 3,9 3,8 25 14 43 23 ZZW 1011,1 1,2
19.01.2021 16:00:00 4,0 4,0 26 14 - - ZZW - 6
19.01.2021 15:00:00 4,5 4,5 29 16 50 27 ZW 1011,2 1,6
19.01.2021 14:00:00 4,5 4,4 29 16 47 25 ZW 1011,5 2,0
19.01.2021 13:00:00 4,5 4,1 29 16 - - ZW 1012,0 7
19.01.2021 12:00:00 4,0 3,7 25 14 47 25 ZW 1012,3 3,0
19.01.2021 11:00:00 3,5 2,9 32 18 47 25 ZZW 1012,2 8
19.01.2021 10:00:00 3,0 2,3 36 19 - - ZZW 1012,5 6
19.01.2021 09:00:00 2,5 1,8 36 19 68 37 ZZW 1012,5 6
19.01.2021 08:00:00 2,7 1,8 36 19 61 33 ZZW 1013,0 6
19.01.2021 07:00:00 2,7 1,6 40 21 - - ZZW 1013,3 20
19.01.2021 06:00:00 2,5 1,7 32 18 50 27 ZZW 1014,8 12
19.01.2021 05:00:00 2,5 1,7 36 19 50 27 ZZW 1015,7 2,4
19.01.2021 04:00:00 2,5 1,4 32 18 - - ZZW 1016,8 14
19.01.2021 03:00:00 2,5 1,0 25 14 40 21 ZZW 1018,0 19
19.01.2021 02:00:00 2,2 0,8 22 12 36 19 ZZW 1019,2 19
19.01.2021 01:00:00 2,2 0,8 25 14 - - ZZW 1020,2 20
19.01.2021 00:00:00 2,6 0,9 29 16 40 21 ZZW 1020,7 19
18.01.2021 23:00:00 2,9 1,0 25 14 40 21 ZZW 1021,6 20
18.01.2021 22:00:00 3,0 1,5 26 14 - - ZZW 1022,2 10
18.01.2021 21:00:00 3,2 2,0 22 12 36 19 ZZW 1022,5 15
18.01.2021 20:00:00 3,2 2,2 22 12 29 16 ZW 1023,1 15
18.01.2021 19:00:00 3,0 2,3 22 12 - - ZZW 1023,1 8
18.01.2021 18:00:00 3,1 2,4 22 12 32 18 ZW 1023,2 6
18.01.2021 17:00:00 2,9 2,1 18 10 25 14 ZW 1023,2 8
18.01.2021 16:00:00 2,9 2,1 18 10 - - ZZW 1023,7 8
18.01.2021 15:00:00 3,0 2,1 22 12 32 18 ZW 1024,0 8

tt = temperatuur
td = dauwpunt
ff = windsnelheid
fx = windstoten
dd = windrichting
ppp = luchtdruk
vv = zicht

Weerstations in de omgeving